www.pogodaiklimat.ru

Погода и климат >> Архив погоды >> Россия >> Челябинская область >> Южноуральск


ПОГОДА в Южноуральске

  • Прогноз погоды в Южноуральске
  • Монитор погоды в Южноуральске

АРХИВ ПОГОДЫ в Южноуральске

Время (UTC), дата Ветер
(напр.,м/с)
 
Видим.   Явления Облачность Т
(С)
Тd
(С)
f
(%)
Тe
(С)
Тes
(С)
Комфортность P
(гПа)
Po
(гПа)
Тmin
(С)
Tmax
(С)
R
(мм)
R24
(мм)
S
(см)
21 17.08 штиль 0 50 км 10/0 2000 м
[Ac As]
+21.1 +12.2 57 +23 +23 комфорт 1018.0 990.2
00 18.08 штиль 0 50 км 4/0 2000 м
[Ac trans]
+17.7 +13.9 78 +18 +18 1018.5 990.5
03 18.08 З 1 50 км 10/0 2000 м
[As trans]
+19.5 +14.2 71 +22 +23 комфорт 1018.9 991.0 +17.2
09 18.08 СЗ 1 50 км 6/3 1000 м
[Cu hum Ci fib]
+31.9 +12.9 31 +33 +41 жарко 1018.2 991.5
15 18.08 С 1 50 км 8/0
[Ci fib]
+26.4 +13.3 44 +28 +28 жарко 1019.8 992.5 +32.5
21 18.08 С 1 50 км ясно +20.6 +14.2 67 +24 +24 комфорт 1022.7 994.8
03 19.08 СВ 2 50 км 10/10 1000 м
[Sc]
+19.5 +16.6 83 +22 +22 комфорт 1024.8 996.8 +17.9
09 19.08 СВ 1 50 км 8/6 1000 м
[Sc diur, vesp Ac trans]
+23.0 +17.9 73 +28 +32 душно 1025.2 997.5
15 19.08 Ю 1 50 км 9/6 1000 м
[Sc Ac lent]
+23.6 +17.5 69 +28 +28 душно 1024.8 997.2 +26.4 3
21 19.08 СВ 1 50 км 9/0
[Cs]
+20.1 +16.5 80 +24 +24 комфорт 1024.1 996.1
03 20.08 В 1 50 км {дождь} 9/9 1000 м
[Sc]
+19.3 +16.7 85 +22 +23 комфорт 1023.0 995.0 +18.0 0.0
09 20.08 ЮЗ 1 50 км {ливн. осадки, дождь} 10/10 1000 м
[Sc]
+23.4 +16.4 65 +28 +28 душно 1020.8 993.3
12 20.08 Ю 1 50 км {ливн. осадки, дождь} 9/8 1000 м
[Sc Ac trans]
+24.1 +17.5 67 +28 +29 душно 1018.6 991.2
15 20.08 ЮЗ 1 50 км 9/4 1000 м
[Sc diur, vesp Ac trans Ci fib]
+23.0 +13.2 54 +26 +26 жарко 1016.8 989.3 +25.9 0.0
21 20.08 штиль 0 50 км 8/8 1000 м
[Sc]
+17.1 +13.8 81 +17 +17 1015.0 987.0
00 21.08 С 2 50 км 6/6 1000 м
[Sc]
+16.8 +14.6 87 +17 +17 1014.4 986.4
03 21.08 С 2 50 км 10/10 300 м
[St]
+18.1 +16.2 89 +19 +19 1015.1 987.2 +16.2
06 21.08 С 3 50 км 10/10 1000 м
[Sc]
+19.0 +14.8 77 +20 +20 1016.5 988.6
09 21.08 С 3 50 км 10/10 1000 м
[Sc]
+18.6 +13.3 71 +19 +19 1018.2 990.2
12 21.08 С 2 50 км 3/3 1000 м
[Sc]
+22.9 +7.7 38 +24 +27 комфорт 1018.0 990.4
15 21.08 С 2 50 км ясно +19.5 +8.2 48 +21 +21 комфорт 1019.0 991.1 +23.5
21 21.08 С 1 50 км ясно +12.1 +9.5 84 +12 +12 1021.7 993.0
03 22.08 З 2 50 км 8/0 2000 м
[Ac trans]
+12.5 +10.1 85 +12 +13 1022.8 994.1 +10.5
09 22.08 С 1 50 км 9/5 1000 м
[Cu hum Ci fib]
+23.3 +8.5 39 +25 +30 комфорт 1021.1 993.5
15 22.08 В 1 50 км ясно +19.9 +9.3 50 +22 +22 комфорт 1021.1 993.2 +24.3
21 22.08 штиль 0 50 км ясно +11.8 +9.0 83 +11 +11 1022.6 993.8
03 23.08 Ю 1 50 км 8/0
[Ci fib]
+16.3 +9.6 65 +17 +19 1021.6 993.3 +10.0
09 23.08 З 4 50 км 9/0
[Ci fib]
+27.1 +6.6 27 +26 +32 жарко 1018.5 991.3
15 23.08 З 2 50 км 1/0
[]
+24.5 +10.3 41 +26 +26 жарко 1017.4 990.0 +28.9
21 23.08 С 2 50 км 9/9 1000 м
[Sc]
+19.5 +13.2 67 +22 +22 комфорт 1018.7 990.8
03 24.08 СЗ 1 50 км 9/0
[Ci fib]
+17.2 +10.1 63 +18 +20 1021.7 993.5 +15.2
09 24.08 С 1 50 км 6/3 1000 м
[Cu hum Ci sp]
+24.5 +6.9 32 +25 +32 комфорт 1020.0 992.5
15 24.08 С 1 50 км 8/0
[Ci fib]
+20.3 +6.5 41 +22 +22 комфорт 1020.1 992.2 +26.1

 

Местоположение метеостанции Южноуральск (Челябинская область, Россия): широта 54.43 долгота 61.35 высота над уровнем моря 240 м.

В архиве по умолчанию представлена погода в Южноуральске за последнюю неделю. Архивные данные за месяц целиком и за предыдущие месяцы, начиная с января 2011 года, Вы можете получить, выбрав интересующий диапазон дат из раскрывающегося списка и нажав кнопку "Ввод!".


*Определитесь, кто Вы:
робот инопланетянин человек

Внимание! Время в таблицах - всемирное. Для получения местного времени необходимо прибавить поправку, которая равна 5 ч.

Смотрите также архив погоды в соседних городах и на ближайших метеорологических станциях:

Погода в Троицке (Челябинская область, Россия) (43 км)
Погода в Мирном (Челябинская область, Россия) (69 км)
Погода в Челябинске (Челябинская область, Россия) (80 км)
Погода в Карабалыке (Костанайская область, Казахстан) (87 км)
Погода в Октябрьском (Челябинская область, Россия) (87 км)
Погода в Михайловке (Костанайская область, Казахстан) (96 км)
Погода в Миассе (Челябинская область, Россия) (103 км)
Погода в Учалах (Башкирия, Россия) (125 км)
Погода в Аргаяше (Челябинская область, Россия) (128 км)
Погода в Златоусте (Челябинская область, Россия) (136 км)

Пояснения к столбцам:

Ветер - указаны скорость ветра в м/с - средняя за 10 мин, порывы в срок и между сроками (в фигурных скобках) и направление, откуда дует ветер: С - северный, СВ - северо-восточный, В - восточный, ЮВ - юго-восточный, Ю - южный, ЮЗ - юго-западный, З - западный, СЗ - северо-западный.
Видимость - горизонтальная дальность видимости в метрах или километрах. При видимости от 1 до 10 км при отсутствии осадков обычно наблюдается дымка, при ухудшении видимости до 1 км и менее - туман. В сухую погоду видимость может ухудшаться дымом, пылью или мглою.
Явления - указаны атмосферные явления, наблюдавшиеся в срок или в последний час перед сроком; фигурными скобками обозначены явления, наблюдавшиеся между сроками (за 1-3 часа до срока); квадратными скобками обозначены град или гололедные отложения с указанием их диаметра в мм.
Облачность - указаны через наклонную черту общая и нижняя облачность в баллах и высота нижней границы облаков в метрах; квадратными скобками обозначены формы облаков: Ci - перистые, Cs - перисто-слоистые, Cc - перисто-кучевые, Ac - высококучевые, As - высокослоистые, Sc - слоисто-кучевые, Ns - слоисто-дождевые, Cu - кучевые, Cb - кучево-дождевые. Подробнее классификацию облаков см. в Атласе облаков (PDF).
T - Температура воздуха - температура, измеренная на высоте 2 м над землей.
Td - Температура точки росы - температура, при понижении до которой содержащийся в воздухе водяной пар достигнет насыщения.
f - Относительная влажность воздуха - влажноcть воздуха, измеренная на высоте 2 м над землей.
Te - Эффективная температура - температура, которую ощущает одетый по сезону человек в тени. Характеристика душности погоды. При расчете учитывается влияние влажности воздуха и скорости ветра на теплоощущения человека.
Tes - Эффективная температура на солнце - температура, которую ощущает человек, с поправкой на солнечный нагрев. Характеристика знойности погоды. Зависит от высоты солнца над горизонтом, облачности и скорости ветра. Ночью, в пасмурную погоду, а также при ветре 12 м/с и более поправка равна нулю.
P - Атмосферное давление - приведенное к уровню моря атмосферное давление.
Po - Атмосферное давление - измеренное на уровне метеостанции атмосферное давление.
Tmin - Минимальная температура - минимум температуры воздуха на высоте 2 м над землей.
Tmax - Максимальная температура - максимум температуры воздуха на высоте 2 м над землей.
R - Количество осадков - Количество выпавших осадков за период времени, мм. При наведении курсора мыши на число - период времени, за который выпало указанное количество осадков.
R24 - Количество осадков - Количество выпавших осадков за 24 часа, мм.
S - Снежный покров - Высота снежного покрова, см. При наведении курсора мыши на число - состояние снежного покрова и степень покрытия местности в баллах.